Regional Weather Roundup
Issued by NWS

Home | Current Version | Previous Version | Graphics & Text | Print | Product List | Glossary Off
Versions: 1 2 3 4 5 6 7 8 9 10 11 12 13 14 15 16 17 18 19 20 21 22 23 24 25 26 27 28 29 30 31 32 33 34 35 36 37 38 39 40 41 42 43 44 45 46 47 48 49 50

607
ASUS43 KMKX 190821
RWRWI

WISCONSIN REGIONAL WEATHER ROUNDUP
NATIONAL WEATHER SERVICE MILWAUKEE/SULLIVAN WI
300 AM CDT SAT AUG 19 2017

NOTE: "FAIR" INDICATES FEW OR NO CLOUDS BELOW 12,000 FEET WITH NO
SIGNIFICANT WEATHER AND/OR OBSTRUCTIONS TO VISIBILITY.

WIZ001-002-006>008-014>016-023>028-190900-
NORTHWEST WISCONSIN

CITY           SKY/WX    TMP DP  RH WIND       PRES   REMARKS
SUPERIOR ARPT    N/A     56  56  99 SW7       29.86S
ASHLAND        CLEAR     59  56  89 W8        29.86S
HAYWARD        CLOUDY    60  59  96 CALM      29.90S FOG
SIREN          CLEAR     59  58  97 W3        29.91S
CUMBERLAND     CLEAR     57  55  94 SW3       29.92S
RICE LAKE      CLEAR     58  57  97 CALM      29.93S FOG
CHETEK         PTCLDY    58  58 100 CALM      29.92S FOG
LADYSMITH      CLOUDY    62  61  97 W5        29.92S FOG
EAU CLAIRE     CLEAR     60  59  96 SW5       29.91S FOG
MENOMONIE      CLEAR     60  59  96 CALM      29.92S
NEW RICHMOND   CLEAR     57  57 100 CALM      29.92F FOG
OSCEOLA        FOG       55  55 100 CALM      29.94F VSB 3/4
$$

WIZ003>005-009-010-017-018-190900-
NORTH CENTRAL WISCONSIN

CITY           SKY/WX    TMP DP  RH WIND       PRES   REMARKS
MANITOWISH WTR CLOUDY    58  58 100 CALM      29.89S FOG
ARBOR VITAE    MOCLDY    62  61  96 W3        29.89S
WOODRUFF       MOCLDY    62  61  96 W3        29.89S
RHINELANDER    PTCLDY    57  57 100 W6        29.90S FOG
EAGLE RIVER    FOG       54  54 100 W5        29.88S VSB 1/2
LAND O LAKES   FOG       57  57 100 W3        29.90S VSB 1/2
PHILLIPS       CLOUDY    60  60 100 W3        29.89S FOG
TOMAHAWK         N/A     57  56  97 CALM      29.90F FOG
MEDFORD        CLOUDY    61  60  98 W5        29.91S FOG
MERRILL        CLOUDY    61  61 100 W7        29.90F FOG
$$

WIZ029-030-035-036-043>047-190900-
CENTRAL WISCONSIN

CITY           SKY/WX    TMP DP  RH WIND       PRES   REMARKS
WAUSAU         CLOUDY    63  62  97 NW5       29.89S FOG
MOSINEE        CLOUDY    61  61 100 NW5       29.91F
MARSHFIELD     CLEAR     60  58  92 W5        29.90F FOG
STEVENS POINT  PTCLDY    61  61 100 CALM      29.91S FOG
WAUPACA        CLEAR     63  62  97 CALM      29.90S FOG
WAUTOMA        CLOUDY    64  63  96 W8        29.91S
WISC RAPIDS    PTCLDY    62  62 100 W3        29.92S
CAMP DOUGLAS   FOG       55  55 100 CALM      29.91S VSB 1/4
$$

WIZ011>013-019>022-031-037>040-048>050-190900-
NORTHEAST WISCONSIN

CITY           SKY/WX    TMP DP  RH WIND       PRES   REMARKS
ANTIGO         CLOUDY    56  56 100 W6        29.91S FOG
SHAWANO        CLOUDY    61  59  92 CALM      29.88S
OCONTO         MOCLDY    56  55  97 CALM      29.86S
STURGEON BAY   CLOUDY    60  57  89 SW3       29.86F
GREEN BAY      CLOUDY    60  60 100 W5        29.87F
MANITOWOC      CLOUDY    62  60  93 W3        29.87F
APPLETON       CLOUDY    59  59 100 W8        29.88R FOG
CLINTONVILLE   MOCLDY    59  55  88 CALM      29.89R
OSHKOSH        CLOUDY    63  61  93 W5        29.89S
$$

WIZ032>034-041-042-053>061-190900-
SOUTHWEST WISCONSIN

CITY           SKY/WX    TMP DP  RH WIND       PRES   REMARKS
LA CROSSE      FOG       61  60  97 SW5       29.91S VSB 3/4
SPARTA         FOG       53  53 100 CALM      29.92F VSB 1/2
VIROQUA          N/A     58  58 100 W3        29.93S VSB 1/2
BOSCOBEL       FOG       58  57  97 CALM      29.93R VSB 1/4
PRAIRIE DU CHI FOG       60  58  95 CALM      29.93S VSB<1/4
PLATTEVILLE    PTCLDY    56  56 100 W3        29.94S
$$

WIZ056-057-062-063-064-067-068-190900-
SOUTH CENTRAL WISCONSIN

CITY           SKY/WX    TMP DP  RH WIND       PRES   REMARKS
REEDSBURG      CLEAR     58  58 100 CALM      29.92S
BARABOO/DELLS  CLEAR     58  57  95 CALM      29.92S FOG
LONE ROCK      FOG       58  58 100 CALM      29.92S VSB 3/4
MINERAL POINT  PTCLDY    61  61 100 CALM      29.93S FOG
MADISON        PTCLDY    60  59  96 CALM      29.91S
MIDDLETON      PTCLDY    60  60 100 CALM      29.92S
WATERTOWN      PTCLDY    60  60 100 CALM      29.90S
MONROE         CLEAR     61  59  94 NW5       29.92F
JANESVILLE       N/A     59  59 100 CALM      29.91F FOG
$$

WIZ051-052-058>065-066-070>072-190900-
SOUTHEAST WISCONSIN

CITY           SKY/WX    TMP DP  RH WIND       PRES   REMARKS
MILWAUKEE      MOCLDY    67  62  84 NW6       29.89F
WAUKESHA       PTCLDY    61  59  94 W6        29.92S
MILWAUKEE/TIMM CLOUDY    63  57  82 W3        29.90S
RACINE         CLEAR     63  61  93 W6        29.91S
KENOSHA        CLEAR     61  58  90 W3        29.90S
FOND DU LAC    CLOUDY    64  61  90 W5        29.89F
SHEBOYGAN      CLOUDY    62  62 100 SW3       29.88F
WEST BEND      CLOUDY    63  63 100 CALM      29.89S
JUNEAU         CLOUDY    62  61  96 CALM      29.92R
$$

LSZ147-162-190900-
LAKE SUPERIOR

STATION/POSITION TIME  TEMP    WIND        PRES    WAVE
                       AIR SEA DIR/SP/G            HT/PER
                 (UTC) (F)     (DEG/KT/KT) (MB)    (FT/S)
W MID LAKE BUOY  0750   61 60  250/ 12/ 14 1009.1F   1/ 4
DEVILS ISLAND    0800   62     240/ 16/ 18 1009.9R
SAXON HARBOR     0740   65     200/  8/ 13 1010.2S
$$

LMZ867-665-643>646-190900-
LAKE MICHIGAN

STATION/POSITION TIME  TEMP    WIND        PRES    WAVE
                       AIR SEA DIR/SP/G            HT/PER
                 (UTC) (F)     (DEG/KT/KT) (MB)    (FT/S)
S GREEN BAY BUOY 0800   67 70  280/  8/ 10 1011.0
N MID LAKE BUOY  0750   66 66  300/ 12/ 14 1010.7F   1/ 3
NORTHPORT PIER   0740   65     280/  4/  6 1010.5F
KEWAUNEE LAKESHO 0754   62     290/  3/  4 1010.4F
SHEBOYGAN LAKESH 0800   66     260/  5/  5 1011.1F
PORT WASHINGTON  0730   66     310/  4/  5 1012.9S
ATWATER BUOY     0709   68 70  290/ 10/ 12 1012.2F
MILWAUKEE LAKESH 0800   66     300/  6/  7   N/A
S MID LAKE BUOY  0750   70 71  350/ 14/ 16 1011.6R   2/ 3
KENOSHA   LAKESH 0800   64     290/  7/ 11 1012.2
$$

TC  - TEMPERATURE IN CELSIUS
VSB - VISIBILITY IN STATUTE MILES
WCI - WIND CHILL INDEX
HX  - HEAT INDEX





USA.gov is the U.S. government's official web portal to all federal, state and local government web resources and services.